www.pogodaiklimat.ru

Погода и климат >> Архив погоды >> Германия >> Offenbach Wetterpark


ПОГОДА в Offenbach Wetterpark

  • Прогноз погоды в Offenbach Wetterpark
  • Монитор погоды в Offenbach Wetterpark
  • Климат города

АРХИВ ПОГОДЫ в Offenbach Wetterpark

Время (UTC), дата Ветер
(напр.,м/с)
 
Видим.   Явления Облачность Т
(С)
Тd
(С)
f
(%)
Тe
(С)
Тes
(С)
Комфортность P
(гПа)
Po
(гПа)
Тmin
(С)
Tmax
(С)
R
(мм)
R24
(мм)
S
(см)
11 12.07 СВ 2-5
{6}
35 км 9/9 870 м
[]
+20.4 +12.6 61 +23 +25 комфорт 1018.3 1004.2
10 12.07 С 2-4
{5}
40 км 9/9 1020 м
[]
+19.7 +11.7 60 +22 +23 комфорт 1018.1 1004.0
12 12.07 СЗ 2-4
{6}
35 км ?/? +22.4 +12.4 53 +25 +25 комфорт 1017.8 1003.8
13 12.07 З 2-3
{6}
40 км 10/10 1470 м
[]
+22.4 +12.1 52 +25 +25 комфорт 1017.8 1003.8
14 12.07 СВ 2-3
{4}
45 км 9/9 1500 м
[]
+23.6 +12.5 50 +26 +27 жарко 1017.4 1003.5
15 12.07 СЗ 2-3
{6}
40 км 9/9 1500 м
[]
+25.1 +12.2 45 +27 +28 жарко 1016.8 1003.0
17 12.07 З 3-4
{4}
50 км 9/0 2000 м
[]
+25.1 +12.3 45 +27 +28 жарко 1016.6 1002.8
16 12.07 З 2-4
{5}
55 км 1/1 1500 м
[]
+25.1 +11.5 43 +27 +32 жарко 1016.6 1002.8
18 12.07 З 2 55 км 10/10 1500 м
[]
+25.2 +11.6 43 +27 +27 жарко 1016.5 1002.7 +15.8 +26.0
19 12.07 З 2-3
{5}
45 км 8/0 2000 м
[]
+23.6 +12.3 49 +25 +25 комфорт 1017.2 1003.3
20 12.07 СВ 2-4
{10}
35 км 9/9 1500 м
[]
+19.9 +14.7 72 +23 +23 комфорт 1018.3 1004.2
21 12.07 С 1-2
{10}
30 км 10/0
[]
+19.4 +15.0 76 +22 +22 комфорт 1018.7 1004.6
23 12.07 В 1-2
{2}
23 км 9/0
[]
+17.4 +15.6 89 +18 +18 1019.0 1004.8
22 12.07 З 1-1
{1}
25 км 10/0
[]
+17.7 +15.8 89 +19 +19 1018.9 1004.7
00 13.07 СВ 1-1
{10}
13 км 9/0
[]
+16.7 +15.6 93 +18 +18 1018.8 1004.6
01 13.07 Ю 1-1
{1}
18 км 9/0
[]
+15.9 +15.2 96 +17 +17 1018.9 1004.6
02 13.07 ЮВ 1-1
{1}
7000 м дымка 9/0
[]
+15.3 +14.7 96 +16 +16 1019.2 1004.9
03 13.07 штиль 0-1
{1}
7000 м дымка 10/0
[]
+15.1 +14.6 97 +15 +15 1019.5 1005.2
05 13.07 штиль 0-1
{1}
6000 м дымка 9/0
[]
+15.5 +15.0 97 +15 +16 1019.8 1005.5
04 13.07 штиль 0-1
{1}
6000 м дымка 10/0
[]
+15.2 +14.7 97 +15 +15 1019.8 1005.5
06 13.07 штиль 0 7000 м дымка 6/0
[]
+16.7 +15.6 93 +17 +19 1020.0 1005.7 +15.0 +25.4
07 13.07 С 1-2
{2}
21 км 10/0
[]
+18.3 +14.2 77 +20 +23 1020.1 1005.9
08 13.07 СВ 2-3
{3}
24 км ясно +20.7 +14.1 66 +24 +34 комфорт 1020.1 1006.0
09 13.07 СВ 2-3
{3}
27 км ясно +23.0 +13.1 54 +26 +39 жарко 1019.9 1005.9
11 13.07 СВ 3-4
{7}
30 км 1/0
[]
+25.5 +11.3 41 +27 +40 жарко 1019.6 1005.7
10 13.07 С 2-5
{5}
35 км ясно +24.3 +13.4 51 +27 +42 жарко 1019.7 1005.8
12 13.07 С 3-6
{7}
35 км ясно +25.9 +10.1 37 +27 +41 жарко 1018.9 1005.1
13 13.07 Ю 1-2
{7}
45 км ?/? +27.0 +11.2 37 +28 +28 жарко 1018.3 1004.5
14 13.07 СЗ 1-3
{5}
45 км 10/0 2000 м
[]
+26.6 +9.9 35 +27 +34 жарко 1018.3 1004.5
15 13.07 С 4 35 км 10/0
[]
+25.1 +12.3 45 +27 +30 жарко 1018.6 1004.7
17 13.07 С 2-3
{6}
50 км 10/0
[]
+26.1 +11.1 39 +27 +28 жарко 1017.8 1004.0
16 13.07 С 3-5
{7}
45 км 10/0
[]
+25.3 +11.7 43 +27 +29 жарко 1018.4 1004.5
18 13.07 С 2 40 км 5/0
[]
+25.2 +11.5 42 +27 +27 жарко 1017.7 1003.8 +16.7 +27.8
19 13.07 СЗ 1-1
{3}
35 км 10/0
[]
+22.3 +13.9 59 +25 +25 комфорт 1018.0 1004.0
20 13.07 Ю 1-1
{1}
30 км ясно +19.8 +13.6 67 +23 +23 комфорт 1018.5 1004.4
21 13.07 СВ 1-3
{3}
30 км ясно +19.7 +14.2 71 +23 +23 комфорт 1018.9 1004.8
23 13.07 С 1-1
{2}
27 км 4/0
[]
+16.9 +14.4 85 +18 +18 1019.6 1005.3
22 13.07 штиль 0-1
{3}
29 км 3/0
[]
+17.9 +14.3 79 +18 +18 1019.4 1005.2
00 14.07 ЮВ 1-1
{3}
24 км ясно +15.7 +13.9 89 +16 +16 1019.5 1005.2
01 14.07 С 1-1
{1}
25 км 10/0
[]
+16.1 +14.3 89 +17 +17 1019.4 1005.1
02 14.07 С 1-2
{2}
24 км 10/0
[]
+16.8 +13.4 80 +18 +18 1019.4 1005.1
03 14.07 С 2-3
{3}
25 км 10/0
[]
+17.6 +12.8 73 +18 +18 1019.4 1005.2
05 14.07 СВ 1-2
{2}
19 км в посл. час дождь {морось} 10/0
[]
+17.3 +14.5 84 +18 +19 1019.6 1005.4
04 14.07 штиль 0
{3}
24 км 10/0
[]
+17.0 +13.7 81 +17 +17 1019.6 1005.3
06 14.07 СВ 1 25 км в посл. час дождь {морось} 10/0
[]
+18.6 +13.8 74 +20 +22 1019.7 1005.5 +15.7 +25.1 0.0
07 14.07 С 2-3
{4}
25 км 1/0
[]
+20.2 +13.5 65 +23 +29 комфорт 1019.8 1005.7
08 14.07 СВ 2-4
{4}
30 км ясно +22.5 +13.0 55 +25 +35 комфорт 1019.7 1005.7
09 14.07 В 2-3
{5}
30 км ясно +24.7 +11.5 44 +26 +39 жарко 1019.4 1005.5
11 14.07 С 2-6
{6}
35 км ясно +26.7 +10.4 36 +27 +44 жарко 1018.6 1004.8
10 14.07 СВ 2-5
{5}
40 км ясно +26.3 +11.2 39 +27 +43 жарко 1018.9 1005.1
12 14.07 СВ 2-5
{6}
35 км ясно +28.3 +10.3 33 +29 +46 жарко 1017.8 1004.1
13 14.07 В 2-4
{5}
40 км ясно +28.4 +9.4 30 +28 +44 жарко 1017.2 1003.5
14 14.07 СЗ 3-5
{5}
30 км в посл. час осадки ?/? +29.6 +8.6 27 +29 +29 жарко 1016.7 1003.0
15 14.07 СВ 1-2
{5}
35 км в посл. час осадки 4/0 2000 м
[]
+29.1 +8.4 27 +29 +37 жарко 1016.2 1002.5 0.0
17 14.07 СЗ 2-4
{4}
45 км 8/0
[]
+29.2 +8.9 28 +29 +30 жарко 1015.5 1001.8
16 14.07 ЮЗ 1-2
{4}
40 км 4/0
[]
+28.9 +8.7 28 +28 +34 жарко 1015.8 1002.1
18 14.07 СВ 3 40 км {осадки} 1/0
[]
+27.8 +9.7 32 +28 +29 жарко 1015.3 1001.6 +18.7 +30.3
19 14.07 СВ 1-1
{4}
35 км 8/0
[]
+24.5 +13.4 50 +27 +27 жарко 1015.5 1001.7
20 14.07 С 1-2
{3}
35 км 10/0
[]
+23.6 +12.4 49 +25 +25 комфорт 1015.9 1002.0
21 14.07 С 3-5
{6}
30 км 10/0
[]
+23.5 +12.9 51 +26 +26 жарко 1016.6 1002.7
23 14.07 С 2-4
{6}
30 км 10/0
[]
+21.4 +13.5 61 +24 +24 комфорт 1017.0 1003.0
22 14.07 С 3-6
{6}
29 км 10/0
[]
+22.5 +13.5 57 +26 +26 жарко 1016.9 1002.9
00 15.07 С 2-3
{6}
22 км 4/0
[]
+19.9 +13.6 67 +22 +22 комфорт 1017.2 1003.1
01 15.07 С 2-3
{4}
24 км ясно +19.2 +13.5 70 +21 +21 комфорт 1017.0 1002.9
02 15.07 С 2-3
{4}
24 км 1/0
[]
+18.6 +13.4 72 +20 +20 1016.6 1002.5
03 15.07 С 2-3
{4}
23 км ясно +17.8 +13.2 74 +18 +18 1016.7 1002.5
05 15.07 С 2-5
{5}
22 км 1/0
[]
+17.9 +12.9 73 +18 +19 1016.6 1002.4
04 15.07 С 2-3
{4}
20 км 1/0
[]
+17.3 +13.1 76 +18 +18 1016.6 1002.4
06 15.07 С 3 25 км 1/0
[]
+18.7 +12.8 69 +20 +22 1016.6 1002.5 +17.2 +27.8
07 15.07 С 2-3
{5}
26 км ясно +20.6 +13.3 63 +24 +30 комфорт 1016.7 1002.7
08 15.07 С 2-4
{4}
30 км 1/0
[]
+22.8 +13.2 55 +26 +35 жарко 1016.4 1002.5
09 15.07 СВ 3-5
{5}
27 км ясно +24.3 +13.5 51 +27 +37 жарко 1016.2 1002.3
11 15.07 СЗ 2-4
{5}
40 км 9/0
[]
+27.8 +10.9 35 +29 +38 жарко 1015.3 1001.6
10 15.07 СВ 2-5
{6}
35 км 5/0
[]
+25.8 +13.0 45 +28 +39 жарко 1015.9 1002.1
12 15.07 СЗ 2-5
{6}
35 км 10/0
[]
+29.3 +9.6 29 +29 +38 жарко 1014.5 1000.9
13 15.07 СВ 3-5
{6}
40 км 10/0
[]
+28.1 +8.9 30 +28 +34 жарко 1014.1 1000.4
14 15.07 С 3-6
{7}
30 км 9/0
[]
+30.0 +8.7 26 +29 +35 жарко 1013.3 999.7
15 15.07 С 2-4
{7}
50 км 6/0
[]
+28.3 +7.1 26 +28 +34 жарко 1013.1 999.4
17 15.07 ЮВ 2-3
{3}
50 км 10/0
[]
+28.3 +8.5 29 +28 +29 жарко 1012.8 999.1
16 15.07 СВ 2-4
{5}
60 км 10/0
[]
+28.7 +7.5 26 +28 +31 жарко 1012.9 999.3
18 15.07 ЮЗ 4 28 км слаб. дождь 10/0
[]
+22.8 +12.9 54 +26 +26 жарко 1014.1 1000.2 +18.7 +30.2 0.1
19 15.07 ЮЗ 3-5
{9}
35 км в посл. час дождь {морось} 10/0
[]
+21.9 +13.4 58 +25 +25 комфорт 1014.0 1000.1
20 15.07 З 1-3
{4}
35 км 10/0
[]
+20.8 +13.8 64 +25 +25 комфорт 1014.3 1000.3
21 15.07 Ю 1 35 км {дождь, морось} 10/0
[]
+19.3 +13.6 70 +22 +22 комфорт 1014.5 1000.4 0.1
23 15.07 ЮВ 1-2
{3}
30 км 10/0
[]
+19.1 +14.2 73 +21 +21 комфорт 1014.7 1000.6
22 15.07 Ю 1-1
{2}
29 км 10/0
[]
+19.1 +14.6 75 +22 +22 комфорт 1014.4 1000.3
00 16.07 Ю 3-4
{9}
35 км {дождь, морось} 10/0
[]
+19.0 +13.5 70 +20 +20 1014.8 1000.7
01 16.07 З 3-4
{4}
1900 м дождь 9/9 30 м
[]
+17.1 +14.8 86 +17 +17 1014.5 1000.3
02 16.07 ЮВ 2-3
{4}
21 км слаб. дождь {морось} 10/10 1500 м
[]
+16.7 +15.7 94 +17 +17 1014.6 1000.4
03 16.07 ЮВ 1-1
{4}
12 км в посл. час дождь {морось} 10/0 2000 м
[]
+16.6 +16.0 96 +17 +17 1014.6 1000.4 6
05 16.07 штиль 0-1
{1}
5000 м дымка 10/0
[]
+16.8 +16.3 97 +17 +17 1014.5 1000.3
04 16.07 штиль 0-1
{1}
5000 м дымка 10/0
[]
+16.4 +15.9 97 +16 +16 1014.7 1000.5
06 16.07 ЮВ 1 9000 м {дождь, морось} 9/0
[]
+17.3 +16.3 94 +18 +20 1014.3 1000.2 +16.4 +22.9
07 16.07 ЮВ 1-1
{2}
14 км 9/0
[]
+18.8 +16.3 85 +21 +25 комфорт 1014.5 1000.4
08 16.07 ЮВ 2-3
{3}
20 км 10/0
[]
+19.1 +15.9 82 +21 +26 комфорт 1014.6 1000.5
09 16.07 ЮВ 1 24 км 10/0 2000 м
[]
+19.4 +15.6 79 +22 +30 комфорт 1014.6 1000.5
11 16.07 ЮВ 2-3
{3}
27 км в посл. час дождь 10/0
[]
+23.7 +16.1 62 +27 +35 жарко 1013.4 999.6
10 16.07 СВ 1-2
{3}
20 км в посл. час дождь {морось} 10/10 750 м
[]
+20.2 +17.5 84 +24 +24 комфорт 1014.1 1000.1
12 16.07 ЮВ 2-3
{3}
40 км {дождь, морось} ясно +26.0 +12.4 43 +28 +44 жарко 1012.8 999.1 1
13 16.07 С 1-2
{4}
35 км ясно +27.2 +11.6 38 +28 +46 жарко 1011.9 998.2
14 16.07 ЮЗ 1-2
{3}
45 км ясно +28.5 +10.3 32 +29 +43 жарко 1011.2 997.6
15 16.07 В 2-4
{4}
50 км 1/0
[]
+28.6 +9.4 30 +29 +37 жарко 1010.7 997.1
17 16.07 ЮЗ 2-4
{4}
50 км 10/0
[]
+29.3 +9.5 29 +29 +30 жарко 1010.2 996.6
16 16.07 З 1-2
{4}
55 км 8/0
[]
+29.7 +8.8 27 +29 +33 жарко 1010.3 996.7
18 16.07 В 1 55 км 9/0 2000 м
[]
+26.6 +10.5 36 +27 +28 жарко 1011.0 997.3 +17.3 +29.9
19 16.07 В 3-5
{7}
35 км в посл. час дождь {ливн. осадки} 10/0 2000 м
[]
+20.6 +14.9 70 +24 +24 комфорт 1011.6 997.6
20 16.07 Ю 1-2
{5}
15 км 5/0
[]
+17.7 +16.8 94 +19 +19 1012.1 998.0
21 16.07 ЮВ 1 12 км {ливн. осадки, дождь} 10/0
[]
+17.7 +17.0 96 +19 +19 1012.4 998.3 0.6
23 16.07 В 2-3
{3}
18 км 10/0
[]
+16.6 +15.5 93 +17 +17 1013.3 999.1
22 16.07 С 2-3
{3}
25 км 9/0
[]
+17.2 +15.9 92 +18 +18 1013.0 998.9
00 17.07 штиль 0-1
{7}
8000 м {ливн. осадки, дождь} 10/0
[]
+16.1 +15.5 96 +16 +16 1013.2 999.0
01 17.07 ЮВ 1-2
{2}
11 км 8/0
[]
+15.5 +14.9 96 +16 +16 1013.3 999.1
02 17.07 штиль 0-1
{4}
16 км 1/0
[]
+15.4 +14.0 91 +15 +15 1013.2 999.0
03 17.07 штиль 0-1
{4}
9000 м 10/0
[]
+14.6 +14.0 96 +14 +14 1013.4 999.1
05 17.07 Ю 1-1
{3}
10 км 10/0
[]
+15.2 +13.9 92 +16 +16 1014.0 999.7
04 17.07 штиль 0-1
{1}
7000 м дымка 10/0
[]
+14.0 +13.6 97 +14 +14 1013.7 999.4
06 17.07 Ю 1 23 км 10/0
[]
+17.5 +14.4 82 +19 +20 1014.1 1000.0 +13.9 +26.7
07 17.07 ЮВ 2-2
{2}
17 км 10/0
[]
+20.0 +14.3 70 +23 +26 комфорт 1014.2 1000.2
08 17.07 ЮЗ 1-3
{3}
30 км 9/0 2000 м
[]
+23.2 +13.8 55 +27 +33 душно 1014.1 1000.2
09 17.07 З 2-3
{4}
35 км ясно +25.4 +13.2 47 +27 +40 жарко 1014.0 1000.2
11 17.07 СЗ 2-4
{4}
30 км 10/0 2000 м
[]
+28.7 +9.5 30 +29 +37 жарко 1013.8 1000.1
10 17.07 ЮЗ 2-3
{3}
35 км ясно +28.0 +13.0 40 +30 +45 жарко 1013.9 1000.2
12 17.07 СВ 2 50 км 10/0
[]
+28.4 +10.0 32 +29 +37 жарко 1013.3 999.6
13 17.07 ЮВ 3-5
{12}
30 км в посл. час дождь 10/0
[]
+24.2 +16.9 64 +28 +34 душно 1013.6 999.8
14 17.07 ЮВ 2-3
{4}
45 км 6/0
[]
+28.8 +13.0 38 +30 +39 жарко 1013.1 999.5
15 17.07 Ю 2-4
{12}
45 км {дождь} 5/0
[]
+29.0 +11.9 35 +30 +37 жарко 1013.0 999.4 2
17 17.07 В 1-1
{6}
16 км в посл. час дождь {морось} 9/0
[]
+21.0 +19.5 91 +27 +28 душно 1014.0 1000.1
16 17.07 С 3-5
{5}
8000 м слаб. дождь 10/10 30 м
[]
+21.4 +17.6 79 +26 +26 душно 1014.0 1000.1
18 17.07 ЮВ 1 12 км {дождь, морось} 9/0
[]
+21.2 +20.2 94 +26 +27 душно 1014.0 1000.1 +17.5 +30.2 4
19 17.07 Ю 1-1
{1}
21 км 5/0
[]
+19.7 +18.2 91 +23 +23 комфорт 1014.6 1000.6
20 17.07 В 1-2
{2}
28 км 6/0
[]
+17.9 +15.9 88 +19 +19 1015.2 1001.1
21 17.07 СВ 1-2
{4}
22 км 5/0
[]
+17.9 +16.5 92 +19 +19 1015.7 1001.6
23 17.07 Ю 1-1
{1}
25 км 1/0
[]
+16.3 +15.3 94 +17 +17 1016.4 1002.2
22 17.07 ЮВ 1-1
{2}
16 км 9/0
[]
+17.4 +16.2 93 +18 +18 1016.2 1002.0
00 18.07 ЮВ 1-1
{4}
19 км 8/0
[]
+16.0 +14.9 93 +17 +17 1016.8 1002.5
01 18.07 ЮВ 1-1
{1}
14 км 1/0
[]
+15.2 +14.6 96 +16 +16 1016.9 1002.6
02 18.07 С 1-3
{3}
24 км 8/0
[]
+16.0 +14.6 91 +17 +17 1017.2 1002.9
03 18.07 СЗ 1-3
{3}
25 км ?/? +17.5 +13.6 78 +19 +19 1017.5 1003.3
05 18.07 штиль 0-1
{2}
29 км ?/? +17.0 +14.1 83 +17 +17 1017.9 1003.7
04 18.07 штиль 0-1
{3}
26 км 4/0
[]
+15.6 +13.6 88 +15 +15 1017.6 1003.3
06 18.07 СВ 2 35 км 3/0 2000 м
[]
+19.8 +13.6 67 +22 +25 комфорт 1018.1 1004.0 +15.0 +21.3
07 18.07 С 2-3
{3}
24 км 1/0 2000 м
[]
+21.0 +11.9 56 +24 +30 комфорт 1018.3 1004.2
08 18.07 СВ 2-5
{5}
35 км 1/0 2000 м
[]
+22.5 +11.3 49 +25 +33 комфорт 1018.1 1004.1
09 18.07 СЗ 2 45 км 1/0 2000 м
[]
+23.9 +9.1 39 +25 +37 комфорт 1017.9 1004.0
11 18.07 З 4-8
{8}
40 км ясно +25.9 +9.2 35 +26 +38 жарко 1017.3 1003.5
10 18.07 С 2-5
{5}
35 км 3/0 2000 м
[]
+25.0 +10.2 39 +26 +39 жарко 1017.6 1003.7
12 18.07 З 3-8
{9}
30 км ясно +26.4 +8.9 33 +27 +40 жарко 1017.0 1003.2
13 18.07 З 4-8
{8}
28 км ясно +27.1 +8.0 30 +27 +37 жарко 1016.7 1002.9
14 18.07 СЗ 3-6
{11}
29 км 1/0 2000 м
[]
+28.0 +8.6 30 +28 +37 жарко 1016.2 1002.5
15 18.07 В 2-4
{11}
35 км 1/0 2000 м
[]
+28.6 +8.0 27 +28 +36 жарко 1016.1 1002.4
17 18.07 С 2-4
{7}
65 км ?/? +27.8 +6.9 27 +27 +27 жарко 1015.4 1001.7
16 18.07 СВ 2-4
{6}
40 км 1/0
[]
+28.3 +6.0 24 +27 +32 жарко 1015.7 1002.0
18 18.07 СЗ 1 65 км 1/0
[]
+27.4 +8.1 30 +27 +28 жарко 1015.4 1001.7 +19.9 +28.9
19 18.07 С 2-4
{5}
70 км ?/? +25.7 +8.3 33 +26 +26 жарко 1015.6 1001.8
20 18.07 СЗ 2-4
{6}
60 км ?/? +24.2 +8.8 37 +25 +25 комфорт 1016.2 1002.3
21 18.07 С 2-3
{6}
55 км ?/? +20.9 +10.2 50 +23 +23 комфорт 1016.8 1002.8
23 18.07 С 2-3
{4}
40 км 1/0
[]
+19.6 +10.6 56 +21 +21 комфорт 1017.5 1003.4
22 18.07 С 2-3
{4}
45 км ?/? +20.5 +10.3 52 +23 +23 комфорт 1017.3 1003.2
00 19.07 С 2-3
{6}
40 км ?/? +17.5 +11.1 66 +18 +18 1018.0 1003.8
01 19.07 С 1-2
{2}
35 км 10/0
[]
+15.8 +11.3 75 +17 +17 1018.1 1003.8
02 19.07 В 1-1
{2}
30 км 9/0
[]
+14.7 +11.1 79 +15 +15 1018.4 1004.0
03 19.07 С 2-3
{3}
35 км 10/0
[]
+16.1 +10.7 70 +16 +16 1018.4 1004.1
05 19.07 С 1-2
{4}
30 км 9/0 2000 м
[]
+15.8 +11.1 74 +17 +17 1018.5 1004.2
04 19.07 С 2-4
{4}
35 км 3/0
[]
+16.3 +10.4 68 +16 +16 1018.4 1004.1
06 19.07 СВ 2 40 км 6/0
[]
+18.3 +10.6 61 +19 +21 1018.6 1004.4 +14.3 +28.0
07 19.07 С 2-4
{4}
35 км 1/0
[]
+20.3 +11.0 55 +23 +28 комфорт 1018.7 1004.6
08 19.07 СВ 2-4
{5}
40 км ясно +22.3 +10.8 48 +24 +34 комфорт 1018.7 1004.7

 

Местоположение метеостанции Offenbach Wetterpark (Германия): широта 50.08 долгота 8.78 высота над уровнем моря 119 м.

В архиве по умолчанию представлена погода в Offenbach Wetterpark за последнюю неделю. Архивные данные за месяц целиком и за предыдущие месяцы, начиная с января 2011 года, Вы можете получить, выбрав интересующий диапазон дат из раскрывающегося списка и нажав кнопку "Ввод!".


*Определитесь, кто Вы:
робот инопланетянин человек

Внимание! Время в таблицах - всемирное. Для получения местного времени необходимо прибавить поправку, которая в Offenbach Wetterpark равна 1 ч.

Смотрите также архив погоды в соседних городах и на ближайших метеорологических станциях:

Погода в Frankfurt (Германия) (13 км)
Погода в Kleiner Feldberg (Германия) (28 км)
Погода в Michelstadt (Германия) (46 км)
Погода в Neuhuetten / Spessart (Германия) (46 км)
Погода в Giessen (Германия) (56 км)
Погода в Hoherodskopf-Vogelsberg (Германия) (58 км)
Погода в Geisenheim (Германия) (60 км)
Погода в Mannheim (Германия) (64 км)
Погода в Neu-Ulrichstein (Германия) (76 км)
Погода в Waibstadt (Германия) (87 км)

Пояснения к столбцам:

Ветер - указаны скорость ветра в м/с - средняя за 10 мин, порывы в срок и между сроками (в фигурных скобках) и направление, откуда дует ветер: С - северный, СВ - северо-восточный, В - восточный, ЮВ - юго-восточный, Ю - южный, ЮЗ - юго-западный, З - западный, СЗ - северо-западный.
Видимость - горизонтальная дальность видимости в метрах или километрах. При видимости от 1 до 10 км при отсутствии осадков обычно наблюдается дымка, при ухудшении видимости до 1 км и менее - туман. В сухую погоду видимость может ухудшаться дымом, пылью или мглою.
Явления - указаны атмосферные явления, наблюдавшиеся в срок или в последний час перед сроком; фигурными скобками обозначены явления, наблюдавшиеся между сроками (за 1-3 часа до срока); квадратными скобками обозначены град или гололедные отложения с указанием их диаметра в мм.
Облачность - указаны через наклонную черту общая и нижняя облачность в баллах и высота нижней границы облаков в метрах; квадратными скобками обозначены формы облаков: Ci - перистые, Cs - перисто-слоистые, Cc - перисто-кучевые, Ac - высококучевые, As - высокослоистые, Sc - слоисто-кучевые, Ns - слоисто-дождевые, Cu - кучевые, Cb - кучево-дождевые. Подробнее классификацию облаков см. в Атласе облаков (PDF).
T - Температура воздуха - температура, измеренная на высоте 2 м над землей.
Td - Температура точки росы - температура, при понижении до которой содержащийся в воздухе водяной пар достигнет насыщения.
f - Относительная влажность воздуха - влажноcть воздуха, измеренная на высоте 2 м над землей.
Te - Эффективная температура - температура, которую ощущает одетый по сезону человек в тени. Характеристика душности погоды. При расчете учитывается влияние влажности воздуха и скорости ветра на теплоощущения человека.
Tes - Эффективная температура на солнце - температура, которую ощущает человек, с поправкой на солнечный нагрев. Характеристика знойности погоды. Зависит от высоты солнца над горизонтом, облачности и скорости ветра. Ночью, в пасмурную погоду, а также при ветре 12 м/с и более поправка равна нулю.
P - Атмосферное давление - приведенное к уровню моря атмосферное давление.
Po - Атмосферное давление - измеренное на уровне метеостанции атмосферное давление.
Tmin - Минимальная температура - минимум температуры воздуха на высоте 2 м над землей.
Tmax - Максимальная температура - максимум температуры воздуха на высоте 2 м над землей.
R - Количество осадков - Количество выпавших осадков за период времени, мм. При наведении курсора мыши на число - период времени, за который выпало указанное количество осадков.
R24 - Количество осадков - Количество выпавших осадков за 24 часа, мм.
S - Снежный покров - Высота снежного покрова, см. При наведении курсора мыши на число - состояние снежного покрова и степень покрытия местности в баллах.